Theta_e
315 317 320 323 326 324 323 321 319 320 320 318 319 320 323 321 320 324 329 339 340 340 340 339 336 333 337 339 338 337 334 335 334 332 332 332 331 330 330 331 332 332 333 332 334 334 331 330 329
317 319 320 322 325 323 321 320 320 320 321 320 320 322 323 326 328 334 336 339 340 340 340 340 337 334 338 339 338 337 335 334 333 331 330 330 329 328 327 328 329 331 331 332 334 331 330 329 327
318 318 326 325 323 321 320 319 320 320 320 319 322 323 324 326 328 335 335 340 340 341 340 340 337 333 337 339 338 337 335 333 331 329 329 328 326 324 324 324 326 329 330 331 333 330 328 325 323
319 319 318 323 323 320 319 319 318 322 317 316 321 323 325 325 330 329 335 340 340 341 341 339 335 331 337 338 338 337 336 332 329 329 330 327 325 322 321 321 323 326 327 329 328 326 322 319 315
316 321 322 322 321 318 317 317 320 320 318 320 321 322 326 325 325 329 338 339 340 340 341 339 332 332 336 336 337 337 336 333 328 328 328 328 327 321 320 319 321 323 324 325 323 319 315 310 309
321 320 322 323 320 318 317 316 320 319 317 319 320 322 325 324 327 331 339 338 340 340 340 338 332 334 336 336 336 337 336 334 327 328 327 327 328 324 320 318 319 319 320 321 319 313 307 304 306
322 322 322 320 319 319 318 316 320 319 317 319 320 321 323 324 330 334 339 339 341 340 340 339 337 335 335 335 334 335 335 335 328 328 326 324 324 323 321 319 318 317 317 316 314 306 303 303 307
318 320 320 319 319 320 316 316 315 318 318 315 321 320 321 325 330 336 338 339 340 340 340 339 339 338 338 337 334 334 334 335 329 328 325 323 322 321 320 319 317 314 313 310 305 303 302 302 305
311 319 320 319 318 319 314 316 312 312 316 317 318 316 317 326 329 335 336 337 340 341 340 340 339 338 339 338 334 333 333 334 331 328 325 325 326 325 324 319 316 312 307 304 302 302 302 304 306
317 320 319 316 316 317 315 315 315 315 316 317 316 314 313 324 329 335 336 336 337 339 340 340 339 339 339 338 335 335 333 333 333 330 327 326 328 326 323 319 316 314 311 308 307 307 308 310 312
313 317 312 313 313 314 315 314 314 316 317 318 319 318 314 325 329 333 334 335 335 337 337 338 339 340 339 338 335 335 333 334 333 330 328 325 325 323 321 319 317 316 315 313 312 311 310 310 311
314 312 312 314 315 314 315 314 314 315 318 314 316 316 315 323 327 331 332 333 335 335 334 334 336 337 337 337 337 335 334 334 333 331 329 327 325 324 322 320 318 317 316 315 314 311 310 309 309
315 314 311 313 313 313 313 315 315 314 315 312 312 311 315 318 324 327 330 333 333 332 331 330 334 335 334 335 334 336 335 335 334 332 330 330 327 326 325 322 319 317 317 316 314 310 308 306 305
314 314 315 314 314 314 315 314 314 316 314 313 312 314 314 316 320 325 327 330 331 330 329 328 332 332 332 333 334 333 336 335 334 333 331 330 329 327 326 323 320 318 317 315 313 310 307 303 301
313 316 316 315 315 316 314 317 316 316 312 314 314 314 314 314 317 322 324 327 329 328 327 325 329 330 330 330 331 333 334 334 334 334 332 330 330 329 327 324 321 319 318 315 312 312 310 306 299
316 316 317 314 314 314 315 317 317 313 314 315 316 316 314 313 313 316 321 324 326 325 324 324 328 328 328 327 329 330 331 332 333 334 334 333 332 331 328 325 322 320 318 316 313 312 306 301 295
317 316 317 316 314 314 316 318 317 312 312 315 316 316 315 314 313 312 315 319 321 321 321 320 322 322 323 324 323 327 329 329 329 329 333 333 332 332 329 326 322 321 317 315 312 309 309 298 293
316 316 315 316 314 313 316 317 317 316 313 315 316 316 316 314 314 313 311 312 315 316 315 315 314 315 316 317 318 321 323 327 327 329 330 332 333 332 329 326 323 320 318 314 312 309 300 296 292
313 314 314 314 312 315 316 316 316 316 315 315 316 316 316 316 315 313 311 310 310 312 312 312 312 314 315 316 316 317 316 321 326 328 328 329 331 331 329 326 323 320 318 315 312 307 299 293 291
314 315 315 315 312 313 315 316 316 316 316 316 316 316 317 317 316 314 311 309 308 309 310 311 312 313 314 314 315 315 315 315 322 323 324 326 327 328 328 327 322 317 318 313 309 306 295 293 292
315 316 315 314 314 312 314 315 316 315 314 314 314 315 315 316 316 316 312 309 308 308 309 310 311 313 313 314 314 309 312 317 319 320 321 322 324 323 325 324 323 316 316 312 308 305 299 293 293
314 313 314 314 315 315 313 314 315 315 315 314 315 316 316 316 315 314 313 309 308 308 308 309 310 312 313 313 311 311 312 313 315 317 319 320 320 320 322 323 322 321 315 312 305 304 300 296 295
314 312 313 314 316 316 315 315 314 313 315 315 316 318 317 316 314 313 311 309 309 307 308 308 309 311 311 312 311 312 313 315 314 310 316 318 318 318 317 317 315 317 314 313 304 302 299 297 299
311 313 313 313 315 317 315 315 314 316 315 316 315 315 313 312 312 310 308 307 307 306 306 307 308 310 310 310 310 312 313 313 308 307 312 314 315 314 315 315 315 315 313 311 306 302 301 298 299
313 316 315 317 320 318 314 316 315 315 314 315 316 317 312 311 312 310 308 306 305 305 305 306 308 309 310 308 309 310 312 310 309 312 313 311 311 311 310 312 312 313 310 307 304 300 299 299 298
314 315 318 325 317 314 312 316 316 315 314 314 313 313 311 310 311 311 309 306 305 304 305 306 307 308 309 307 308 308 310 308 307 311 312 311 313 313 312 310 309 308 305 302 301 299 299 299 297
313 315 313 315 308 316 313 315 315 314 314 314 313 313 313 312 311 311 307 305 304 304 305 306 306 307 308 306 307 307 307 306 306 310 310 310 309 310 311 308 303 299 298 301 300 300 298 293 290
312 313 315 315 323 321 315 315 316 317 316 315 314 313 314 313 311 309 306 304 304 304 304 305 306 306 306 305 305 305 304 304 305 307 307 307 306 306 306 304 297 293 294 298 296 293 290 289 288
313 314 313 314 317 324 320 317 317 318 316 315 315 313 313 312 312 310 306 303 303 303 304 305 306 306 305 304 304 303 302 304 304 304 304 304 303 304 302 300 294 291 289 289 288 288 288 287 287
312 314 314 316 317 315 316 319 312 314 313 313 313 312 311 309 310 308 305 303 303 303 303 305 306 306 304 303 303 302 301 304 302 302 302 302 301 300 299 295 289 288 288 288 288 287 287 286 286
Wind_Speed
6 4 1 1 3 3 1 4 0 6 5 2 3 4 2 3 2 3 8 12 16 18 18 17 16 16 15 16 15 15 13 15 15 15 16 15 16 16 15 15 16 16 17 17 18 18 17 20 20
4 1 1 1 4 4 2 4 8 6 2 6 5 3 3 1 2 7 13 10 18 18 17 16 17 17 16 16 15 14 12 14 14 15 16 16 16 16 16 16 16 16 17 18 18 17 18 20 20
0 1 2 1 2 4 2 6 6 5 8 4 4 1 0 2 4 14 6 16 18 17 17 16 18 17 16 16 16 14 14 12 13 15 15 15 16 16 16 16 17 17 17 17 18 18 19 19 20
0 3 3 4 4 1 2 5 6 11 4 4 2 3 3 1 11 5 12 17 18 17 16 18 18 18 16 16 16 14 12 11 13 15 14 15 16 16 16 17 18 18 18 18 17 19 19 18 19
2 2 4 2 2 2 2 3 10 12 5 5 5 3 2 5 4 6 13 17 19 18 16 18 18 17 17 16 15 15 13 11 13 14 14 15 15 16 17 18 19 19 19 19 19 20 18 18 20
3 2 4 8 3 2 3 5 9 9 3 5 4 4 4 6 8 9 13 17 19 19 17 16 18 17 15 14 14 15 15 12 13 14 14 15 16 17 17 19 19 19 19 19 19 18 19 20 22
2 3 6 2 2 3 4 8 10 11 6 6 1 4 3 9 11 12 15 17 18 18 17 16 16 16 15 14 14 14 14 13 13 14 14 16 17 17 18 18 19 20 20 19 19 19 20 22 23
1 2 4 4 4 4 6 9 3 10 7 2 2 4 3 14 14 15 15 17 18 18 18 17 17 16 15 15 15 15 15 15 14 15 15 16 17 17 17 17 17 18 19 19 19 20 21 23 24
1 4 8 6 6 3 7 9 3 0 4 4 5 3 3 13 15 16 16 16 18 18 19 18 18 18 17 16 17 16 15 16 16 16 14 14 14 14 14 15 15 16 17 18 18 20 21 23 23
3 5 7 2 5 3 7 8 7 6 8 7 6 8 4 13 17 20 22 22 21 21 21 20 19 19 17 18 19 18 18 18 18 19 15 15 14 13 15 15 16 17 18 19 20 21 21 19 18
2 7 2 3 3 2 5 6 5 7 9 12 14 12 13 17 18 21 23 23 24 22 21 24 20 20 19 16 21 20 21 19 17 22 22 18 16 17 17 18 18 18 17 18 18 15 14 15 14
4 3 3 2 3 3 4 3 5 11 12 1 9 5 17 17 22 25 25 25 23 23 21 21 26 25 24 22 19 20 23 25 23 26 24 22 20 19 19 18 17 17 17 18 14 14 16 16 16
3 4 4 1 3 3 3 6 8 11 15 6 2 8 13 17 22 23 22 22 22 22 22 23 25 26 24 26 24 21 20 25 26 28 27 25 24 22 20 18 18 19 20 19 18 17 16 17 16
2 1 1 1 2 2 4 3 2 3 5 10 10 12 12 16 21 19 21 24 25 24 24 24 27 25 27 26 26 25 21 19 20 25 26 29 27 25 23 21 21 21 20 19 17 18 17 16 17
2 3 4 6 3 3 3 9 15 14 3 7 13 14 13 15 16 26 26 27 26 26 23 25 27 27 26 27 28 20 23 24 22 22 25 26 30 28 26 24 24 23 22 19 20 22 20 21 22
1 2 4 3 5 1 5 12 6 1 10 17 15 14 13 15 21 23 23 25 25 24 26 27 29 28 26 24 28 30 27 26 25 24 27 30 32 30 29 28 27 26 25 23 25 26 26 25 22
1 5 6 4 4 2 9 7 4 1 5 11 11 13 14 15 17 23 25 26 26 27 25 26 28 27 26 25 22 21 30 31 30 28 26 28 33 32 32 30 29 30 29 29 28 28 29 26 18
6 5 4 7 3 4 8 19 16 11 9 13 15 15 14 16 19 24 26 26 26 26 26 25 26 25 24 20 19 18 23 32 32 31 31 29 32 34 33 33 33 34 35 32 32 31 26 21 22
2 3 6 7 3 3 12 20 21 17 16 20 20 20 20 21 21 19 22 25 25 26 27 29 27 25 23 22 21 19 22 30 31 32 31 30 32 34 39 36 37 36 37 35 34 34 33 24 24
6 10 13 12 3 6 13 20 21 19 22 20 21 22 23 21 18 19 20 22 27 30 31 29 29 27 27 23 22 17 19 25 31 29 28 29 31 33 37 38 38 39 37 37 36 39 30 22 27
11 14 12 10 4 8 11 14 15 10 13 17 21 24 24 25 23 17 18 24 25 29 31 32 31 29 27 24 20 17 18 22 27 30 31 31 31 33 38 36 38 43 40 41 42 43 33 27 25
15 13 10 8 4 8 2 10 18 15 17 13 17 18 21 18 17 16 16 20 26 31 30 30 30 30 28 27 25 24 23 20 29 31 30 30 31 32 35 40 42 44 42 40 41 41 32 30 27
4 6 7 3 6 6 11 7 7 2 8 15 19 18 15 13 13 14 14 20 21 22 26 28 28 28 27 29 26 25 23 23 20 20 30 30 30 33 34 36 41 43 43 41 37 39 31 31 27
13 7 4 2 1 9 10 9 13 7 10 7 8 11 3 4 5 7 7 9 12 14 20 23 27 29 28 28 28 27 25 22 18 21 26 30 30 32 34 36 37 38 38 40 40 39 37 30 23
4 8 3 4 5 10 5 9 21 15 13 13 14 12 1 1 1 2 4 7 10 14 17 20 24 27 26 26 27 25 24 22 22 26 29 31 32 33 35 36 39 38 38 38 38 37 33 29 26
13 10 6 7 6 8 4 10 6 13 13 17 16 16 9 9 9 6 4 4 8 11 15 18 21 24 24 24 25 24 23 22 22 28 32 31 36 37 37 37 38 38 37 36 35 35 32 27 24
7 11 9 6 2 4 11 20 14 11 15 12 15 10 10 8 10 8 3 5 7 10 14 17 18 21 23 24 24 24 24 24 24 29 34 36 37 38 38 40 40 38 37 35 35 35 31 26 23
9 10 5 4 6 8 10 11 13 6 11 14 13 11 10 9 7 4 3 5 7 9 11 14 18 20 22 23 24 25 25 24 25 28 32 36 35 37 38 40 39 38 37 37 35 33 31 29 25
8 10 3 3 5 4 7 11 4 7 6 10 5 4 4 5 7 4 4 5 6 8 11 15 19 22 23 25 25 24 25 29 29 30 32 34 35 37 37 41 40 41 39 38 33 33 32 29 27
9 16 20 7 5 5 5 17 6 3 2 3 2 1 0 2 6 4 3 5 7 9 11 15 18 21 23 25 27 27 26 31 34 33 33 34 34 35 37 39 38 39 39 37 37 35 36 33 30
Wind_Direction
327 330 26 242 240 269 196 160 3 162 178 140 146 213 231 16 319 16 145 155 158 160 166 170 166 163 156 145 133 124 115 109 102 100 99 98 97 94 91 91 91 90 89 92 94 89 87 82 77
325 350 40 97 257 264 161 150 195 176 91 131 140 163 199 110 94 118 142 169 159 159 163 168 168 166 160 151 139 130 125 114 107 104 99 98 96 93 90 91 92 92 93 95 96 93 88 79 76
11 139 248 280 262 273 300 181 170 130 128 169 156 259 185 121 136 146 144 159 161 160 162 168 170 169 163 159 150 141 129 120 111 103 99 97 93 91 92 91 93 94 94 96 93 90 83 81 79
177 184 124 253 266 241 316 167 160 147 188 217 235 180 170 170 150 148 154 160 164 165 165 173 174 174 168 165 157 146 145 129 120 110 103 97 94 96 94 94 95 97 96 95 97 89 86 86 85
39 235 217 245 262 275 223 201 182 172 160 170 186 151 158 173 172 161 164 169 172 170 169 172 175 174 172 170 166 159 153 139 124 112 104 99 99 98 96 94 94 94 94 95 92 90 90 90 92
187 279 220 238 215 224 224 182 184 193 175 148 208 175 152 159 179 173 170 174 176 173 173 173 175 175 176 172 173 168 159 150 131 121 112 105 103 101 99 97 98 98 97 98 96 95 95 96 96
259 221 234 242 246 227 195 161 197 193 194 203 259 213 125 180 176 169 168 171 176 178 176 175 177 181 181 179 175 174 167 158 144 132 123 116 115 111 107 106 103 102 103 102 101 101 100 99 100
162 205 191 217 224 238 161 175 211 209 206 94 217 224 172 177 167 164 168 174 178 182 184 182 180 180 180 181 179 175 174 168 156 144 134 125 118 114 112 109 109 107 106 107 106 106 104 104 103
226 217 231 224 188 207 153 194 158 7 209 209 200 257 84 155 161 166 171 178 182 188 190 188 185 184 185 183 183 182 181 176 165 155 146 131 122 116 112 118 111 111 112 111 111 111 111 109 109
218 229 231 191 197 208 179 209 180 195 201 218 221 207 165 170 176 180 186 188 190 189 189 190 190 190 190 191 186 187 184 182 174 169 168 160 145 136 131 127 122 119 117 114 115 115 115 105 105
153 242 235 206 207 211 187 213 196 214 222 226 219 197 182 184 193 197 199 197 196 193 192 192 193 195 196 194 196 198 192 190 191 182 181 178 167 159 150 143 135 129 124 118 115 110 106 107 107
209 201 198 137 174 178 198 151 223 219 233 274 228 187 182 192 199 204 204 202 196 194 195 194 202 205 203 201 202 206 202 200 195 193 190 185 178 174 166 161 154 148 141 135 124 118 116 110 107
227 179 189 185 179 215 160 222 244 242 243 229 238 198 205 208 212 212 210 206 202 199 195 195 198 207 209 207 210 210 210 210 205 201 197 195 190 183 179 173 165 159 152 149 141 130 123 116 110
70 208 262 238 230 247 247 250 275 242 271 224 228 231 224 218 216 209 208 207 204 201 200 197 199 201 207 213 213 216 215 212 212 206 201 203 202 192 188 181 175 168 162 151 141 136 129 120 117
67 256 263 218 204 227 225 240 236 245 220 241 233 237 234 230 220 218 214 211 206 206 202 203 204 206 208 211 218 216 214 213 212 209 204 203 205 201 196 189 181 176 168 154 151 145 144 135 127
170 252 246 142 181 178 218 256 248 192 232 251 247 246 239 235 225 227 221 217 212 208 207 209 211 211 213 213 216 223 226 225 216 217 213 214 211 206 201 194 188 178 173 166 159 154 147 138 130
212 248 231 288 195 172 219 273 270 238 243 264 262 255 249 249 231 231 222 218 213 211 211 212 215 215 216 218 217 216 223 227 228 224 222 217 215 211 206 198 192 184 176 171 165 159 158 145 131
215 224 224 250 144 219 241 260 261 258 261 266 270 265 254 247 242 233 223 219 216 214 213 214 214 213 212 213 213 214 218 219 224 223 224 223 215 213 210 203 195 188 179 176 168 164 156 145 138
127 220 259 261 174 253 254 267 272 271 264 263 262 259 256 251 248 237 225 218 214 213 211 212 209 208 205 204 203 209 216 216 219 222 218 219 220 215 211 207 198 193 183 181 177 170 157 147 146
223 259 260 281 227 222 272 268 276 269 258 256 261 262 257 257 248 235 225 216 212 212 212 211 211 207 206 207 206 214 206 214 214 216 209 210 215 215 216 210 198 195 184 183 182 175 154 159 163
228 235 249 262 306 228 290 269 251 264 259 260 258 257 261 255 257 247 228 220 215 214 212 210 209 207 206 203 198 200 203 208 212 217 217 215 214 219 218 211 206 196 193 189 188 181 170 167 182
239 213 237 254 282 276 238 287 281 270 266 256 259 248 251 260 257 257 239 222 217 216 213 212 209 206 205 200 201 203 203 200 210 213 212 213 213 214 218 212 212 199 196 192 190 186 184 175 178
232 143 181 187 235 315 238 264 249 173 260 253 259 261 267 266 260 255 239 236 227 214 210 210 209 207 206 204 206 205 207 210 213 207 211 210 212 217 215 217 203 195 195 199 196 189 188 188 183
139 102 78 89 217 262 244 220 274 207 233 254 253 265 274 266 270 256 239 231 223 207 208 207 207 209 207 207 208 208 209 206 199 202 206 208 209 207 208 204 202 203 203 205 205 198 197 190 192
195 159 217 232 198 251 96 210 251 286 249 248 265 269 195 240 213 235 222 204 202 197 200 204 207 211 209 209 209 210 213 211 212 211 211 208 210 211 208 205 204 206 211 208 203 200 198 199 201
194 199 204 225 228 276 108 237 262 242 270 246 264 277 281 267 272 257 258 226 204 196 197 200 204 209 208 207 209 209 210 212 212 218 218 217 217 215 211 207 208 209 207 205 202 199 199 203 207
173 213 250 268 124 279 255 265 259 233 250 252 246 249 268 255 255 254 211 208 204 198 199 202 204 210 209 209 209 209 207 208 211 219 224 224 218 218 213 208 205 204 203 198 195 195 200 198 195
211 145 170 213 224 241 256 264 254 237 240 247 254 252 252 235 237 227 204 198 198 199 202 203 205 207 209 211 211 209 207 210 217 219 221 223 222 218 213 207 205 202 199 195 194 193 192 191 186
179 210 209 223 224 241 271 260 178 235 278 267 278 273 286 250 220 197 184 199 195 202 201 207 209 204 205 207 209 210 210 215 219 221 225 226 224 222 215 208 205 201 197 193 190 190 185 183 181
237 222 203 206 198 239 275 264 142 87 14 302 220 270 277 218 182 181 190 196 201 209 213 216 217 213 208 205 204 207 209 215 221 223 225 225 225 221 215 209 204 200 197 193 190 188 184 182 179